Weather History for Key West NAF, FL

Change the Weather History Date:

Thursday, November 1, 2012

  Actual Average Record
Temperature  
Mean Temperature 72 °F -  
Max Temperature 78 °F 81 °F 87 °F (1951)
Min Temperature 66 °F 73 °F 62 °F (1993)
Cooling Degree Days 7    
Growing Degree Days 22 (Base 50)    
Moisture  
Dew Point 61 °F    
Average Humidity 65    
Maximum Humidity 90    
Minimum Humidity 53    
Precipitation  
Precipitation 0.00 in - - ()
Sea Level Pressure  
Sea Level Pressure 30.06 in    
Wind  
Wind Speed 2 mph (North)    
Max Wind Speed 6 mph    
Max Gust Speed -    
Visibility 10 miles    
Events      
Averages and records for this station are not official NWS values.
T = Trace of Precipitation, MM = Missing Value Source: NWS Daily Summary

Daily Weather History Graph

Daily Weather History Graph

Search for Another Location

Airport:

Trip Planner

Search our weather history database for the weather conditions in past years. The results will help you decide how hot, cold, wet, or windy it might be!

Date:

Astronomy

Nov. 01, 2012 Rise Set
Actual Time 7:33 AM EDT 6:46 PM EDT
Civil Twilight 7:10 AM EDT 7:09 PM EDT
Nautical Twilight 6:43 AM EDT 7:36 PM EDT
Astronomical Twilight 6:16 AM EDT 8:03 PM EDT
Moon 8:55 PM EDT (11/1) 9:52 AM EDT (11/1)
Length of Visible Light 11h 59m
Length of Day
11h 12m
Waning Gibbous, 93% of the Moon is Illuminated
Nov 1
Waning Gibbous
Nov 6
Last Quarter
Nov 13
New
Nov 20
First Quarter
Nov 28
Full

Hourly Weather History & Observations

Time (EDT) Temp. Dew Point Humidity Pressure Visibility Wind Dir Wind Speed Gust Speed Precip Events Conditions
12:53 AM - - N/A% 30.07 in 10.0 mi Calm Calm - N/A   Clear
1:53 AM - - N/A% 30.07 in 10.0 mi NNE 3.5 mph - N/A   Clear
2:53 AM - - N/A% 30.06 in 10.0 mi NE 3.5 mph - N/A   Clear
3:53 AM - - N/A% 30.05 in 10.0 mi ENE 3.5 mph - N/A   Clear
4:53 AM - - N/A% 30.05 in 10.0 mi East 4.6 mph - N/A   Clear
5:53 AM - - N/A% 30.05 in 10.0 mi Calm Calm - N/A   Clear
6:00 AM 66.2 °F 62.6 °F 88% 30.05 in 10.0 mi Calm Calm - N/A   Clear
6:53 AM 66.2 °F 62.1 °F 86% 30.06 in 9.0 mi Calm Calm - N/A   Clear
7:53 AM 66.2 °F 61.0 °F 83% 30.07 in 10.0 mi Calm Calm - N/A   Partly Cloudy
8:53 AM 68.0 °F 64.9 °F 90% 30.08 in 10.0 mi Calm Calm - N/A   Partly Cloudy
9:53 AM 73.4 °F 62.1 °F 68% 30.09 in 10.0 mi Calm Calm - N/A   Clear
10:53 AM 77.0 °F 62.1 °F 60% 30.10 in 10.0 mi Calm Calm - N/A   Clear
11:53 AM 77.0 °F 61.0 °F 58% 30.09 in 10.0 mi West 3.5 mph - N/A   Clear
12:53 PM 77.0 °F 59.0 °F 54% 30.07 in 10.0 mi Variable 3.5 mph - N/A   Clear
1:53 PM 78.8 °F 60.1 °F 53% 30.05 in 10.0 mi NW 5.8 mph - N/A   Clear
2:53 PM 78.8 °F 60.1 °F 53% 30.03 in 10.0 mi Variable 4.6 mph - N/A   Partly Cloudy
3:53 PM 78.8 °F 60.1 °F 53% 30.02 in 10.0 mi NW 4.6 mph - N/A   Partly Cloudy
4:53 PM 78.8 °F 61.0 °F 54% 30.02 in 10.0 mi NW 4.6 mph - N/A   Partly Cloudy
5:53 PM 78.8 °F 61.0 °F 54% 30.02 in 10.0 mi Calm Calm - N/A   Partly Cloudy
6:53 PM 77.0 °F 61.0 °F 58% 30.03 in 10.0 mi Calm Calm - N/A   Partly Cloudy
7:53 PM 75.2 °F 62.1 °F 64% 30.04 in 10.0 mi Calm Calm - N/A   Partly Cloudy
8:53 PM 73.4 °F 62.1 °F 68% 30.05 in 10.0 mi Calm Calm - N/A   Clear
9:53 PM 73.4 °F 62.1 °F 68% 30.06 in 10.0 mi Calm Calm - N/A   Clear
10:53 PM - - N/A% 30.07 in 10.0 mi South 3.5 mph - N/A   Clear
11:53 PM - - N/A% 30.08 in 10.0 mi Calm Calm - N/A   Clear